Regional Weather Roundup
Issued by NWS

Home | Current Version | Previous Version | Graphics & Text | Print | Product List | Glossary On
Versions: 1 2 3 4 5 6 7 8 9 10 11 12 13 14 15 16 17 18 19 20 21 22 23 24 25 26 27 28 29 30 31 32 33 34 35 36 37 38 39 40 41 42 43 44 45 46 47 48 49 50
000
ASUS43 KFSD 222310
RWRSD

WEATHER ROUNDUP FOR SOUTH DAKOTA
NATIONAL WEATHER SERVICE SIOUX FALLS SD
500 PM CST SAT NOV 22 2014

NOTE: "FAIR" INDICATES FEW OR NO CLOUDS BELOW 12,000 FEET WITH NO
SIGNIFICANT WEATHER AND/OR OBSTRUCTIONS TO VISIBILITY.


SDZ001>005-009-010-012>017-230000-
NORTHWEST AND NORTH CENTRAL SOUTH DAKOTA

CITY           SKY/WX    TMP DP  RH WIND       PRES   REMARKS
BUFFALO          N/A     46  34  62 W3        29.32F
FAITH            N/A     47  28  47 W8        29.39R
MOBRIDGE       CLOUDY    41  31  67 SE5       29.36S
$$

SDZ012>016-024>037-041>051-057-063-072>074-230000-
SOUTHWEST AND SOUTH CENTRAL SOUTH DAKOTA

CITY           SKY/WX    TMP DP  RH WIND       PRES   REMARKS
RAPID CTY ARPT CLOUDY    51  28  41 W7        29.40R
PIERRE         MOCLDY    37  30  75 NW6       29.39R
CUSTER         CLOUDY    41  25  53 W12G22    29.47R
ELLSWORTH AFB  CLOUDY    51  29  43 W8        29.38F
PHILIP         MOCLDY    48  32  53 W8        29.39S
PINE RIDGE     CLOUDY    44  30  57 W7        29.46S
SPEARFISH      FAIR      48  28  46 W16G31    29.40F
WINNER         FAIR      54  31  41 W13       29.42S
$$

SDZ004>011-016>023-039-040-230000-
NORTHEAST SOUTH DAKOTA

CITY           SKY/WX    TMP DP  RH WIND       PRES   REMARKS
ABERDEEN       MOCLDY    36  31  82 S10       29.39F
WATERTOWN      MOCLDY    34  32  92 S16       29.42F FOG     WCI  24
SISSETON         N/A     34  32  92 S14       29.42F WCI  25
$$

SDZ017-020-022-023-036>040-048>070-230000-
SOUTHEAST SOUTH DAKOTA

CITY           SKY/WX    TMP DP  RH WIND       PRES   REMARKS
SIOUX FALLS    CLOUDY    42  36  79 S15       29.49F
HURON          PTCLDY    40  34  79 S8        29.42R
CHAMBERLAIN    MOCLDY    48  32  53 W10       29.41S
MITCHELL       MOCLDY    46  36  68 S12       29.42F
YANKTON        MOCLDY    46  34  61 S16       29.50F
$$

ABBREVIATIONS USED IN REMARKS
   TC - TEMPERATURE IN CELSIUS
  WCI - WIND CHILL INDEX
   HX - HEAT INDEX
  VSB - VISIBILITY



USA.gov is the U.S. government's official web portal to all federal, state and local government web resources and services.